| time (UTC) | temp F | wind direction | speed MPH | gust MPH | rain 1hr in | rain 24hr in | rain mn in | humidity % | barometer mb |
| 20260505025557 | 60 | 188 | 1.0 | 6.0 | 0.00 | 0.00 | 0.00 | 69 | 1011.8 |
| 20260505025056 | 61 | 263 | 2.0 | 4.0 | 0.00 | 0.00 | 0.00 | 68 | 1011.8 |
| 20260505024553 | 61 | 280 | 1.0 | 2.0 | 0.00 | 0.00 | 0.00 | 67 | 1011.8 |
| 20260505024045 | 61 | 307 | 2.0 | 4.0 | 0.00 | 0.00 | 0.00 | 66 | 1011.3 |
| 20260505023542 | 62 | 218 | 3.0 | 4.0 | 0.00 | 0.00 | 0.00 | 66 | 1011.8 |
| 20260505023039 | 62 | 189 | 1.0 | 2.0 | 0.00 | 0.00 | 0.00 | 65 | 1011.8 |
| 20260505022536 | 62 | 163 | 0.0 | 7.0 | 0.00 | 0.00 | 0.00 | 64 | 1011.8 |
| 20260505022033 | 62 | 343 | 1.0 | 3.0 | 0.00 | 0.00 | 0.00 | 64 | 1011.8 |
| 20260505021529 | 63 | 116 | 1.0 | 3.0 | 0.00 | 0.00 | 0.00 | 63 | 1011.8 |
| 20260505021026 | 63 | 287 | 2.0 | 6.0 | 0.00 | 0.00 | 0.00 | 63 | 1012.1 |
| 20260505020520 | 64 | 120 | 1.0 | 8.0 | 0.00 | 0.00 | 0.00 | 63 | 1012.1 |
| 20260505020018 | 64 | 17 | 2.0 | 4.0 | 0.00 | 0.00 | 0.00 | 62 | 1012.1 |
| 20260505015515 | 64 | 84 | 2.0 | 3.0 | 0.00 | 0.00 | 0.00 | 61 | 1012.1 |
| 20260505015012 | 66 | 270 | 3.0 | 4.0 | 0.00 | 0.00 | 0.00 | 59 | 1012.1 |
| 20260505014509 | 67 | 160 | 1.0 | 8.0 | 0.00 | 0.00 | 0.00 | 58 | 1012.1 |
| 20260505014007 | 67 | 261 | 2.0 | 3.0 | 0.00 | 0.00 | 0.00 | 56 | 1012.1 |
| 20260505013503 | 66 | 345 | 1.0 | 7.0 | 0.00 | 0.00 | 0.00 | 57 | 1012.1 |
| 20260505013000 | 67 | 354 | 2.0 | 6.0 | 0.00 | 0.00 | 0.00 | 56 | 1012.1 |
| 20260505012459 | 68 | 225 | 1.0 | 4.0 | 0.00 | 0.00 | 0.00 | 55 | 1012.5 |
| 20260505011955 | 68 | 205 | 3.0 | 7.0 | 0.00 | 0.00 | 0.00 | 55 | 1012.1 |
| 20260505011451 | 68 | 358 | 2.0 | 10.0 | 0.00 | 0.00 | 0.00 | 55 | 1012.1 |
| 20260505010948 | 67 | 285 | 3.0 | 11.0 | 0.00 | 0.00 | 0.00 | 56 | 1012.5 |
| 20260505010444 | 68 | 38 | 3.0 | 8.0 | 0.00 | 0.00 | 0.00 | 54 | 1012.1 |
| 20260505005940 | 68 | 286 | 1.0 | 4.0 | 0.00 | 0.00 | 0.00 | 55 | 1012.5 |
| 20260505005437 | 68 | 104 | 4.0 | 9.0 | 0.00 | 0.00 | 0.00 | 54 | 1012.5 |
| 20260505004935 | 69 | 226 | 4.0 | 11.0 | 0.00 | 0.00 | 0.00 | 54 | 1012.1 |
| 20260505004431 | 69 | 102 | 1.0 | 4.0 | 0.00 | 0.00 | 0.00 | 54 | 1012.5 |
| 20260505003928 | 70 | 41 | 3.0 | 4.0 | 0.00 | 0.00 | 0.00 | 53 | 1012.5 |
| 20260505003425 | 71 | 258 | 1.0 | 8.0 | 0.00 | 0.00 | 0.00 | 54 | 1012.5 |
| 20260505002921 | 71 | 318 | 1.0 | 3.0 | 0.00 | 0.00 | 0.00 | 53 | 1012.1 |
| 20260505002418 | 71 | 346 | 5.0 | 7.0 | 0.00 | 0.00 | 0.00 | 51 | 1012.5 |
| 20260505001916 | 71 | 270 | 2.0 | 2.0 | 0.00 | 0.00 | 0.00 | 50 | 1012.5 |
| 20260505001413 | 71 | 337 | 4.0 | 7.0 | 0.00 | 0.00 | 0.00 | 52 | 1012.5 |
| 20260505000910 | 71 | 347 | 3.0 | 4.0 | 0.00 | 0.00 | 0.00 | 52 | 1012.5 |
| 20260505000408 | 70 | 321 | 6.0 | 7.0 | 0.00 | 0.00 | 0.00 | 52 | 1012.5 |
| 20260504235904 | 72 | 244 | 4.0 | 7.0 | 0.00 | 0.00 | 0.00 | 50 | 1012.5 |
| 20260504235402 | 72 | 39 | 2.0 | 7.0 | 0.00 | 0.00 | 0.00 | 51 | 1012.5 |
| 20260504234858 | 72 | 33 | 2.0 | 3.0 | 0.00 | 0.00 | 0.00 | 49 | 1012.5 |
| 20260504234356 | 71 | 63 | 2.0 | 6.0 | 0.00 | 0.00 | 0.00 | 50 | 1012.5 |
| 20260504233852 | 73 | 129 | 1.0 | 10.0 | 0.00 | 0.00 | 0.00 | 48 | 1012.5 |
| 20260504233348 | 75 | 114 | 1.0 | 3.0 | 0.00 | 0.00 | 0.00 | 45 | 1012.5 |
| 20260504232844 | 74 | 155 | 0.0 | 1.0 | 0.00 | 0.00 | 0.00 | 45 | 1012.5 |
| 20260504232342 | 73 | 243 | 1.0 | 2.0 | 0.00 | 0.00 | 0.00 | 47 | 1012.5 |
| 20260504231838 | 72 | 87 | 1.0 | 13.0 | 0.00 | 0.00 | 0.00 | 49 | 1012.5 |
| 20260504231335 | 71 | 100 | 0.0 | 7.0 | 0.00 | 0.00 | 0.00 | 50 | 1012.5 |
| 20260504230831 | 71 | 101 | 0.0 | 7.0 | 0.00 | 0.00 | 0.00 | 49 | 1012.5 |
| 20260504230329 | 70 | 86 | 2.0 | 8.0 | 0.00 | 0.00 | 0.00 | 51 | 1012.5 |
| 20260504225828 | 69 | 303 | 2.0 | 8.0 | 0.00 | 0.00 | 0.00 | 52 | 1012.5 |
| 20260504225324 | 70 | 249 | 4.0 | 7.0 | 0.00 | 0.00 | 0.00 | 51 | 1012.5 |
| 20260504224821 | 69 | 141 | 3.0 | 7.0 | 0.00 | 0.00 | 0.00 | 53 | 1012.5 |
| 20260504224318 | 70 | 101 | 1.0 | 6.0 | 0.00 | 0.00 | 0.00 | 52 | 1012.5 |
| 20260504223815 | 71 | 316 | 3.0 | 4.0 | 0.00 | 0.00 | 0.00 | 50 | 1012.5 |
| 20260504223310 | 71 | 335 | 2.0 | 7.0 | 0.00 | 0.00 | 0.00 | 51 | 1012.8 |
| 20260504222807 | 73 | 46 | 1.0 | 3.0 | 0.00 | 0.00 | 0.00 | 46 | 1012.5 |
| 20260504222305 | 74 | 191 | 3.0 | 4.0 | 0.00 | 0.00 | 0.00 | 43 | 1012.5 |
| 20260504221802 | 73 | 116 | 1.0 | 2.0 | 0.00 | 0.00 | 0.00 | 45 | 1012.8 |
| 20260504221259 | 74 | 106 | 1.0 | 2.0 | 0.00 | 0.00 | 0.00 | 43 | 1012.8 |
| 20260504220755 | 74 | 183 | 2.0 | 4.0 | 0.00 | 0.00 | 0.00 | 43 | 1012.8 |
| 20260504220252 | 73 | 270 | 2.0 | 4.0 | 0.00 | 0.00 | 0.00 | 44 | 1012.5 |
| 20260504215749 | 75 | 72 | 1.0 | 3.0 | 0.00 | 0.00 | 0.00 | 43 | 1012.8 |
| 20260504215245 | 75 | 129 | 1.0 | 1.0 | 0.00 | 0.00 | 0.00 | 42 | 1012.5 |
| 20260504214736 | 74 | 1 | 2.0 | 3.0 | 0.00 | 0.00 | 0.00 | 43 | 1012.8 |
| 20260504214233 | 76 | 217 | 2.0 | 6.0 | 0.00 | 0.00 | 0.00 | 41 | 1012.8 |
| 20260504213729 | 74 | 161 | 0.0 | 3.0 | 0.00 | 0.00 | 0.00 | 42 | 1012.8 |
| 20260504213225 | 74 | 305 | 6.0 | 7.0 | 0.00 | 0.00 | 0.00 | 41 | 1012.8 |
| 20260504212723 | 76 | 89 | 0.0 | 3.0 | 0.00 | 0.00 | 0.00 | 41 | 1012.8 |
| 20260504212220 | 76 | 85 | 2.0 | 4.0 | 0.00 | 0.00 | 0.00 | 42 | 1013.1 |
| 20260504211717 | 75 | 241 | 1.0 | 3.0 | 0.00 | 0.00 | 0.00 | 45 | 1012.8 |
| 20260504211213 | 75 | 148 | 0.0 | 2.0 | 0.00 | 0.00 | 0.00 | 45 | 1012.8 |
| 20260504210711 | 77 | 30 | 2.0 | 3.0 | 0.00 | 0.00 | 0.00 | 43 | 1012.8 |
| 20260504210208 | 77 | 45 | 3.0 | 4.0 | 0.00 | 0.00 | 0.00 | 41 | 1012.8 |
| 20260504205705 | 78 | 50 | 3.0 | 3.0 | 0.00 | 0.00 | 0.00 | 36 | 1012.8 |
| 20260504205202 | 76 | 118 | 1.0 | 3.0 | 0.00 | 0.00 | 0.00 | 37 | 1012.8 |
| 20260504204700 | 78 | 6 | 2.0 | 3.0 | 0.00 | 0.00 | 0.00 | 36 | 1012.8 |
| 20260504204159 | 77 | 75 | 1.0 | 4.0 | 0.00 | 0.00 | 0.00 | 37 | 1012.8 |
| 20260504203657 | 77 | 92 | 1.0 | 4.0 | 0.00 | 0.00 | 0.00 | 37 | 1012.8 |
| 20260504203154 | 79 | 49 | 1.0 | 2.0 | 0.00 | 0.00 | 0.00 | 36 | 1012.8 |
| 20260504202649 | 79 | 27 | 2.0 | 3.0 | 0.00 | 0.00 | 0.00 | 36 | 1012.8 |
| 20260504202146 | 79 | 20 | 1.0 | 2.0 | 0.00 | 0.00 | 0.00 | 36 | 1012.8 |
| 20260504201643 | 77 | 164 | 0.0 | 2.0 | 0.00 | 0.00 | 0.00 | 38 | 1012.8 |
| 20260504201141 | 78 | 131 | 0.0 | 2.0 | 0.00 | 0.00 | 0.00 | 38 | 1012.8 |
| 20260504200638 | 76 | 67 | 1.0 | 7.0 | 0.00 | 0.00 | 0.00 | 40 | 1012.8 |
| 20260504200134 | 75 | 53 | 1.0 | 3.0 | 0.00 | 0.00 | 0.00 | 39 | 1012.8 |
| 20260504195630 | 75 | 136 | 0.0 | 3.0 | 0.00 | 0.00 | 0.00 | 38 | 1012.8 |
| 20260504195127 | 76 | 101 | 1.0 | 2.0 | 0.00 | 0.00 | 0.00 | 38 | 1012.8 |
| 20260504194623 | 74 | 53 | 1.0 | 3.0 | 0.00 | 0.00 | 0.00 | 39 | 1012.8 |
| 20260504194119 | 75 | 109 | 2.0 | 7.0 | 0.00 | 0.00 | 0.00 | 40 | 1012.8 |
| 20260504193616 | 75 | 79 | 1.0 | 3.0 | 0.00 | 0.00 | 0.00 | 42 | 1012.8 |
| 20260504193114 | 75 | 82 | 2.0 | 3.0 | 0.00 | 0.00 | 0.00 | 41 | 1013.1 |
| 20260504192612 | 75 | 248 | 0.0 | 2.0 | 0.00 | 0.00 | 0.00 | 41 | 1012.8 |
| 20260504192110 | 75 | 20 | 2.0 | 4.0 | 0.00 | 0.00 | 0.00 | 42 | 1012.8 |
| 20260504191608 | 75 | 318 | 3.0 | 4.0 | 0.00 | 0.00 | 0.00 | 43 | 1012.8 |
| 20260504191104 | 74 | 326 | 3.0 | 4.0 | 0.00 | 0.00 | 0.00 | 42 | 1012.8 |
| 20260504190600 | 75 | 101 | 1.0 | 3.0 | 0.00 | 0.00 | 0.00 | 42 | 1012.8 |
| 20260504190056 | 74 | 112 | 2.0 | 3.0 | 0.00 | 0.00 | 0.00 | 42 | 1012.8 |
| 20260504185553 | 75 | 71 | 1.0 | 1.0 | 0.00 | 0.00 | 0.00 | 42 | 1012.8 |
| 20260504185050 | 75 | 193 | 2.0 | 3.0 | 0.00 | 0.00 | 0.00 | 42 | 1012.8 |
| 20260504184545 | 75 | 289 | 2.0 | 2.0 | 0.00 | 0.00 | 0.00 | 44 | 1012.8 |
| 20260504184041 | 73 | 115 | 1.0 | 2.0 | 0.00 | 0.00 | 0.00 | 44 | 1012.8 |
| 20260504183538 | 72 | 47 | 2.0 | 3.0 | 0.00 | 0.00 | 0.00 | 46 | 1012.8 |
| 20260504183036 | 71 | 347 | 4.0 | 7.0 | 0.00 | 0.00 | 0.00 | 46 | 1012.8 |
| 20260504182533 | 70 | 81 | 1.0 | 2.0 | 0.00 | 0.00 | 0.00 | 47 | 1012.8 |
| 20260504182030 | 71 | 232 | 4.0 | 4.0 | 0.00 | 0.00 | 0.00 | 45 | 1012.8 |
| 20260504181527 | 71 | 220 | 2.0 | 3.0 | 0.00 | 0.00 | 0.00 | 49 | 1012.8 |
| 20260504181026 | 70 | 151 | 1.0 | 2.0 | 0.00 | 0.00 | 0.00 | 50 | 1012.8 |
| 20260504180524 | 70 | 297 | 1.0 | 3.0 | 0.00 | 0.00 | 0.00 | 49 | 1012.8 |
| 20260504180023 | 67 | 32 | 2.0 | 7.0 | 0.00 | 0.00 | 0.00 | 51 | 1013.1 |
| 20260504175519 | 69 | 319 | 2.0 | 3.0 | 0.00 | 0.00 | 0.00 | 49 | 1012.8 |
| 20260504175017 | 68 | 180 | 1.0 | 6.0 | 0.00 | 0.00 | 0.00 | 50 | 1013.1 |
| 20260504174514 | 68 | 111 | 0.0 | 4.0 | 0.00 | 0.00 | 0.00 | 52 | 1012.8 |
| 20260504174011 | 68 | 89 | 1.0 | 3.0 | 0.00 | 0.00 | 0.00 | 51 | 1012.8 |
| 20260504173508 | 68 | 113 | 0.0 | 4.0 | 0.00 | 0.00 | 0.00 | 51 | 1013.1 |
| 20260504173005 | 68 | 84 | 2.0 | 2.0 | 0.00 | 0.00 | 0.00 | 53 | 1012.8 |
| 20260504172501 | 67 | 108 | 2.0 | 4.0 | 0.00 | 0.00 | 0.00 | 54 | 1012.8 |
| 20260504171957 | 67 | 47 | 1.0 | 6.0 | 0.00 | 0.00 | 0.00 | 55 | 1012.8 |
| 20260504171455 | 67 | 106 | 1.0 | 2.0 | 0.00 | 0.00 | 0.00 | 56 | 1012.8 |
| 20260504170951 | 66 | 89 | 0.0 | 2.0 | 0.00 | 0.00 | 0.00 | 56 | 1012.8 |
| 20260504170448 | 67 | 64 | 1.0 | 6.0 | 0.00 | 0.00 | 0.00 | 57 | 1012.8 |
| 20260504160408 | 63 | 29 | 1.0 | 3.0 | 0.00 | 0.00 | 0.00 | 63 | 1012.5 |
| 20260504150831 | 59 | 108 | 0.0 | 0.0 | 0.00 | 0.00 | 0.00 | 70 | 1012.1 |
| 20260504150328 | 59 | 127 | 0.0 | 0.0 | 0.00 | 0.00 | 0.00 | 71 | 1012.1 |
| 20260504141258 | 58 | 96 | 0.0 | 0.0 | 0.00 | 0.00 | 0.00 | 65 | 1011.8 |
| 20260504140755 | 58 | 95 | 0.0 | 2.0 | 0.00 | 0.00 | 0.00 | 65 | 1011.8 |
| 20260504140250 | 57 | 93 | 0.0 | 1.0 | 0.00 | 0.00 | 0.00 | 65 | 1011.8 |
| 20260504130719 | 53 | 122 | 0.0 | 0.0 | 0.00 | 0.00 | 0.00 | 71 | 1011.3 |
| 20260504130215 | 53 | 126 | 0.0 | 0.0 | 0.00 | 0.00 | 0.00 | 71 | 1011.3 |
| 20260504120139 | 51 | 141 | 0.0 | 0.0 | 0.00 | 0.00 | 0.00 | 77 | 1011.3 |
| 20260504110606 | 50 | 106 | 0.0 | 0.0 | 0.00 | 0.00 | 0.00 | 81 | 1011.8 |
| 20260504100528 | 51 | 113 | 0.0 | 0.0 | 0.00 | 0.00 | 0.00 | 79 | 1011.8 |
| 20260504081921 | 55 | 120 | 0.0 | 0.0 | 0.00 | 0.00 | 0.00 | 66 | 1011.8 |
| 20260504081418 | 56 | 121 | 0.0 | 0.0 | 0.00 | 0.00 | 0.00 | 65 | 1011.8 |
| 20260504080914 | 57 | 112 | 0.0 | 0.0 | 0.00 | 0.00 | 0.00 | 63 | 1011.8 |
| 20260504080411 | 57 | 112 | 0.0 | 0.0 | 0.00 | 0.00 | 0.00 | 62 | 1011.3 |
| 20260504070338 | 61 | 115 | 0.0 | 0.0 | 0.00 | 0.00 | 0.00 | 52 | 1012.1 |
| 20260504050715 | 63 | 179 | 0.0 | 1.0 | 0.00 | 0.00 | 0.00 | 49 | 1012.5 |
| 20260504050212 | 63 | 96 | 1.0 | 1.0 | 0.00 | 0.00 | 0.00 | 49 | 1012.5 |
| 20260504045709 | 63 | 157 | 0.0 | 1.0 | 0.00 | 0.00 | 0.00 | 48 | 1012.5 |
| 20260504045204 | 64 | 126 | 1.0 | 1.0 | 0.00 | 0.00 | 0.00 | 49 | 1012.5 |
| 20260504044702 | 64 | 205 | 2.0 | 2.0 | 0.00 | 0.00 | 0.00 | 48 | 1012.5 |
| 20260504044159 | 65 | 103 | 1.0 | 1.0 | 0.00 | 0.00 | 0.00 | 46 | 1012.5 |
| 20260504043656 | 65 | 344 | 1.0 | 1.0 | 0.00 | 0.00 | 0.00 | 47 | 1012.5 |
| 20260504043153 | 65 | 103 | 1.0 | 1.0 | 0.00 | 0.00 | 0.00 | 47 | 1012.5 |
| 20260504042650 | 66 | 111 | 0.0 | 1.0 | 0.00 | 0.00 | 0.00 | 47 | 1012.5 |
| 20260504042147 | 66 | 111 | 1.0 | 2.0 | 0.00 | 0.00 | 0.00 | 44 | 1012.5 |
| 20260504041642 | 66 | 84 | 1.0 | 1.0 | 0.00 | 0.00 | 0.00 | 45 | 1012.5 |
| 20260504041138 | 66 | 75 | 1.0 | 1.0 | 0.00 | 0.00 | 0.00 | 44 | 1012.5 |
| 20260504040636 | 65 | 293 | 1.0 | 2.0 | 0.00 | 0.00 | 0.00 | 46 | 1012.5 |
| 20260504040133 | 66 | 96 | 0.0 | 1.0 | 0.00 | 0.00 | 0.00 | 49 | 1012.5 |
| 20260504035629 | 66 | 120 | 0.0 | 1.0 | 0.00 | 0.00 | 0.00 | 49 | 1012.5 |
| 20260504035126 | 67 | 104 | 1.0 | 1.0 | 0.00 | 0.00 | 0.00 | 47 | 1012.5 |
| 20260504034624 | 67 | 69 | 1.0 | 1.0 | 0.00 | 0.00 | 0.00 | 43 | 1012.5 |
| 20260504034121 | 68 | 90 | 0.0 | 1.0 | 0.00 | 0.00 | 0.00 | 44 | 1012.1 |
| 20260504033619 | 68 | 96 | 0.0 | 1.0 | 0.00 | 0.00 | 0.00 | 43 | 1012.5 |
| 20260504033116 | 68 | 106 | 0.0 | 1.0 | 0.00 | 0.00 | 0.00 | 40 | 1012.5 |
| 20260504032612 | 68 | 105 | 0.0 | 1.0 | 0.00 | 0.00 | 0.00 | 44 | 1012.5 |
| 20260504032109 | 69 | 80 | 0.0 | 0.0 | 0.00 | 0.00 | 0.00 | 42 | 1012.5 |
| 20260504031607 | 69 | 97 | 1.0 | 1.0 | 0.00 | 0.00 | 0.00 | 40 | 1012.1 |
| 20260504031103 | 70 | 73 | 0.0 | 1.0 | 0.00 | 0.00 | 0.00 | 39 | 1012.5 |
| 20260504030600 | 70 | 106 | 1.0 | 1.0 | 0.00 | 0.00 | 0.00 | 37 | 1012.5 |